Weather in Varlamovo

Russia / Novosibirsk Oblast     55°48′24″N   84°21′39″E
temp.,
°C
wind,
m/s
gust,
m/s
humid.,
%
clouds,
%
prec.,
mm/h
press.,
hPa
HPBL,
m
3 march, wed
wed301:00−16s129691 0.1 101720
04:00−15ssw229695 0.1 101631
07:00−18ssw229784 0.1 101720
10:00−15ssw229687 0.1 1018138
13:00−12ssw239089 0.1 1018379
16:00−10ssw3591100 0.0 1018439
19:00−13ssw3795100 0.1 1020164
22:00−15ssw4109678 0.0 1021204
4 march, thu
thu401:00−14ssw5129482 0.1 1022329
04:00−15ssw6149397 0.0 1021378
07:00−13ssw7159098 0.0 1021485
10:00−11ssw81590100 0.2 1020592
13:00−7ssw81591100 0.4 1019706
16:00−5ssw81591100 0.3 1018806
19:00−5ssw71493100 0.8 1017807
22:00−5ssw71593100 0.6 1016794
5 march, fri
fri501:00−6ssw71589100 0.8 1015627
04:00−8ssw71589100 0.0 1013543
07:00−7ssw71585100 0.0 1012540
10:00−7ssw8168499 0.0 1011644
13:00−5sw91592100 0.4 1010872
16:00−2sw91591100 0.4 10101375
19:00−6sw81583100 0.6 1014839
22:00−6sw81593100 0.1 1016984
6 march, sat
sat601:00−7sw71491100 0.6 1017923
04:00−7sw61491100 0.1 1017745
07:00−6sw71491100 0.2 1018731
10:00−5sw81494100 0.6 1016779
13:00−4sw91493100 1.3 1015998
16:00−4sw91584100 0.2 10131034
19:00−5sw81784100 0.2 1011999
22:00−5sw91792100 0.5 10091040
7 march, sun
sun701:00−4sw91789100 0.7 1009973
04:00−4sw91692100 0.2 1008956
07:00−6wsw8168196 0.7 1012888
10:00−9wsw7158676 0.0 1015688
13:00−8wsw7128375 0.0 1017645
16:00−7sw61082100 0.0 1017600
19:00−8ssw398698 0.0 1017254
22:00−6s41190100 0.0 1016324